• In Romania
  • List of Countries
  • For 7 days
  • Water Temperature
  • Satellite Maps
  • Weather Map
  • Weather Widgets
  • user-avatar
    Login

    Hourly Weather Kaprun

    Today, 16 October, Tuesday

    Time Temperature Precipitation Wind Pressure Humidity
    00:00 +1°C° 0 mm 2 mps 598 mmHg 90%
    01:00 +1°C° 0 mm 2 mps 598 mmHg 90%
    02:00 +1°C° 0 mm 2 mps 597 mmHg 89%
    03:00 -1°C° 0 mm 2 mps 597 mmHg 88%
    04:00 -1°C° 0 mm 2 mps 597 mmHg 87%
    05:00 +1°C° 0 mm 1 mps 597 mmHg 86%
    06:00 +1°C° 0 mm 1 mps 598 mmHg 84%
    07:00 +2°C° 0 mm 1 mps 598 mmHg 83%
    08:00 +4°C° 0 mm 1 mps 599 mmHg 73%
    09:00 +7°C° 0 mm 1 mps 600 mmHg 62%
    10:00 +10°C° 0 mm 1 mps 602 mmHg 52%
    11:00 +11°C° 0 mm 1 mps 602 mmHg 49%
    12:00 +11°C° 0 mm 1 mps 602 mmHg 47%
    13:00 +12°C° 0 mm 1 mps 602 mmHg 44%
    14:00 +11°C° 0 mm 1 mps 602 mmHg 50%
    15:00 +11°C° 0 mm 1 mps 601 mmHg 56%
    16:00 +9°C° 0 mm 2 mps 601 mmHg 61%
    17:00 +8°C° 0 mm 1 mps 600 mmHg 71%
    18:00 +6°C° 0 mm 1 mps 599 mmHg 80%
    19:00 +4°C° 0 mm 1 mps 599 mmHg 89%
    20:00 +3°C° 0 mm 1 mps 599 mmHg 89%
    21:00 +3°C° 0 mm 1 mps 599 mmHg 89%
    22:00 +3°C° 0 mm 1 mps 599 mmHg 89%
    23:00 +3°C° 0 mm 1 mps 599 mmHg 89%

    Tomorrow, 17 October, Wednesday

    Time Temperature Precipitation Wind Pressure Humidity
    00:00 +3°C° 0 mm 1 mps 598 mmHg 88%
    01:00 +3°C° 0 mm 1 mps 598 mmHg 88%
    02:00 +2°C° 0 mm 1 mps 598 mmHg 88%
    03:00 +2°C° 0 mm 1 mps 598 mmHg 88%
    04:00 +2°C° 0 mm 1 mps 598 mmHg 88%
    05:00 +2°C° 0 mm 1 mps 598 mmHg 87%
    06:00 +2°C° 0 mm 1 mps 598 mmHg 87%
    07:00 +2°C° 0 mm 1 mps 598 mmHg 86%
    08:00 +5°C° 0 mm 1 mps 599 mmHg 77%
    09:00 +7°C° 0 mm 1 mps 600 mmHg 68%
    10:00 +10°C° 0 mm 1 mps 601 mmHg 58%
    11:00 +11°C° 0 mm 1 mps 601 mmHg 57%
    12:00 +11°C° 0 mm 1 mps 601 mmHg 56%
    13:00 +11°C° 0 mm 1 mps 601 mmHg 55%
    14:00 +11°C° 0.1 mm 1 mps 600 mmHg 61%
    15:00 +10°C° 0.1 mm 1 mps 600 mmHg 68%
    16:00 +9°C° 0.1 mm 1 mps 599 mmHg 74%
    17:00 +8°C° 0 mm 1 mps 599 mmHg 81%
    18:00 +6°C° 0 mm 1 mps 598 mmHg 88%
    19:00 +4°C° 0 mm 1 mps 598 mmHg 96%
    20:00 +4°C° 0 mm 1 mps 598 mmHg 95%
    21:00 +4°C° 0 mm 1 mps 598 mmHg 95%
    22:00 +4°C° 0 mm 1 mps 598 mmHg 95%
    23:00 +4°C° 0 mm 1 mps 597 mmHg 95%

    Day after tomorrow, 18 October, Thursday

    Time Temperature Precipitation Wind Pressure Humidity
    00:00 +3°C° 0 mm 1 mps 597 mmHg 94%
    01:00 +3°C° 0 mm 1 mps 597 mmHg 94%
    02:00 +3°C° 0.1 mm 1 mps 597 mmHg 94%
    03:00 +3°C° 0.1 mm 1 mps 597 mmHg 94%
    04:00 +2°C° 0.1 mm 1 mps 596 mmHg 93%
    05:00 +1°C° 0 mm 0 mps 596 mmHg 93%
    06:00 +1°C° 0 mm 0 mps 596 mmHg 93%
    07:00 +2°C° 0 mm 0 mps 597 mmHg 92%
    08:00 +4°C° 0 mm 0 mps 598 mmHg 85%
    09:00 +6°C° 0 mm 0 mps 599 mmHg 77%
    10:00 +9°C° 0 mm 0 mps 600 mmHg 70%
    11:00 +10°C° 0 mm 1 mps 600 mmHg 67%
    12:00 +11°C° 0 mm 1 mps 600 mmHg 65%
    13:00 +11°C° 0 mm 1 mps 600 mmHg 63%
    14:00 +10°C° 0 mm 1 mps 600 mmHg 69%
    15:00 +10°C° 0 mm 1 mps 599 mmHg 75%
    16:00 +9°C° 0 mm 1 mps 599 mmHg 81%
    17:00 +8°C° 0.1 mm 1 mps 599 mmHg 86%
    18:00 +7°C° 0.1 mm 1 mps 599 mmHg 92%
    19:00 +4°C° 0.1 mm 0 mps 598 mmHg 97%
    20:00 +4°C° 0 mm 0 mps 598 mmHg 97%
    21:00 +4°C° 0 mm 0 mps 599 mmHg 97%
    22:00 +4°C° 0 mm 0 mps 599 mmHg 97%
    23:00 +4°C° 0 mm 0 mps 599 mmHg 97%

    19 October, Friday

    Time Temperature Precipitation Wind Pressure Humidity
    00:00 +3°C° 0 mm 0 mps 599 mmHg 97%
    01:00 +3°C° 0 mm 0 mps 599 mmHg 97%
    02:00 +3°C° 0 mm 0 mps 598 mmHg 97%
    03:00 +2°C° 0 mm 0 mps 598 mmHg 97%
    04:00 +3°C° 0 mm 1 mps 598 mmHg 97%
    05:00 +3°C° 0 mm 1 mps 598 mmHg 96%
    06:00 +3°C° 0 mm 1 mps 599 mmHg 96%
    07:00 +3°C° 0 mm 1 mps 599 mmHg 96%
    08:00 +5°C° 0 mm 1 mps 600 mmHg 89%
    09:00 +7°C° 0 mm 1 mps 600 mmHg 82%
    10:00 +8°C° 0 mm 1 mps 601 mmHg 75%
    11:00 +9°C° 0 mm 1 mps 601 mmHg 69%
    12:00 +10°C° 0 mm 1 mps 602 mmHg 62%
    13:00 +11°C° 0 mm 1 mps 602 mmHg 56%
    14:00 +10°C° 0 mm 1 mps 602 mmHg 60%
    15:00 +10°C° 0 mm 1 mps 602 mmHg 65%
    16:00 +8°C° 0 mm 2 mps 601 mmHg 69%
    17:00 +7°C° 0 mm 1 mps 601 mmHg 78%
    18:00 +5°C° 0 mm 1 mps 600 mmHg 86%
    19:00 +3°C° 0 mm 1 mps 600 mmHg 95%
    20:00 +3°C° 0 mm 1 mps 600 mmHg 95%
    21:00 +3°C° 0 mm 1 mps 600 mmHg 96%
    22:00 +2°C° 0 mm 1 mps 600 mmHg 96%
    23:00 +2°C° 0 mm 1 mps 600 mmHg 95%

    20 October, Saturday

    Time Temperature Precipitation Wind Pressure Humidity
    00:00 +2°C° 0 mm 1 mps 600 mmHg 93%
    01:00 +1°C° 0 mm 1 mps 600 mmHg 92%
    02:00 +1°C° 0 mm 1 mps 600 mmHg 89%
    03:00 +1°C° 0 mm 1 mps 600 mmHg 87%
    04:00 +1°C° 0 mm 1 mps 600 mmHg 84%
    05:00 +1°C° 0 mm 1 mps 600 mmHg 82%
    06:00 +1°C° 0 mm 1 mps 600 mmHg 79%
    07:00 +1°C° 0 mm 1 mps 601 mmHg 77%
    08:00 +3°C° 0 mm 1 mps 602 mmHg 69%
    09:00 +6°C° 0 mm 1 mps 603 mmHg 61%
    10:00 +8°C° 0 mm 1 mps 604 mmHg 53%
    11:00 +9°C° 0 mm 1 mps 604 mmHg 52%
    12:00 +9°C° 0 mm 1 mps 605 mmHg 51%
    13:00 +10°C° 0 mm 1 mps 605 mmHg 50%
    14:00 +8°C° 0 mm 2 mps 604 mmHg 56%
    15:00 +8°C° 0 mm 2 mps 604 mmHg 61%
    16:00 +7°C° 0 mm 2 mps 604 mmHg 67%
    17:00 +6°C° 0 mm 1 mps 603 mmHg 77%
    18:00 +4°C° 0 mm 1 mps 603 mmHg 86%
    19:00 +2°C° 0 mm 1 mps 602 mmHg 95%
    20:00 +2°C° 0 mm 1 mps 602 mmHg 95%
    21:00 +2°C° 0 mm 1 mps 603 mmHg 96%
    22:00 +2°C° 0 mm 1 mps 603 mmHg 96%
    23:00 +1°C° 0 mm 1 mps 602 mmHg 95%

    21 October, Sunday

    Time Temperature Precipitation Wind Pressure Humidity
    00:00 +1°C° 0 mm 1 mps 602 mmHg 93%
    01:00 +1°C° 0 mm 1 mps 602 mmHg 92%
    02:00 0°C° 0 mm 1 mps 602 mmHg 90%
    03:00 0°C° 0 mm 1 mps 602 mmHg 88%
    04:00 0°C° 0 mm 1 mps 602 mmHg 86%
    05:00 0°C° 0 mm 1 mps 602 mmHg 84%
    06:00 0°C° 0 mm 1 mps 602 mmHg 82%
    07:00 0°C° 0 mm 1 mps 602 mmHg 79%
    08:00 +3°C° 0 mm 1 mps 603 mmHg 69%
    09:00 +5°C° 0 mm 1 mps 604 mmHg 58%
    10:00 +8°C° 0 mm 1 mps 605 mmHg 47%
    11:00 +9°C° 0 mm 1 mps 606 mmHg 43%
    12:00 +10°C° 0 mm 1 mps 606 mmHg 40%
    13:00 +11°C° 0 mm 1 mps 606 mmHg 36%
    14:00 +10°C° 0 mm 1 mps 605 mmHg 43%
    15:00 +9°C° 0 mm 1 mps 605 mmHg 50%
    16:00 +9°C° 0 mm 1 mps 604 mmHg 57%
    17:00 +6°C° 0 mm 1 mps 603 mmHg 65%
    18:00 +4°C° 0 mm 1 mps 602 mmHg 72%
    19:00 +2°C° 0 mm 1 mps 602 mmHg 79%
    20:00 +2°C° 0 mm 1 mps 602 mmHg 77%
    21:00 +2°C° 0 mm 1 mps 602 mmHg 75%
    22:00 +2°C° 0 mm 1 mps 602 mmHg 72%
    23:00 +1°C° 0 mm 1 mps 602 mmHg 70%
    Show more